#timestamp,LO_Frequency,Hit,Temp,Hum 
1478124015.3,286047021.0,N,0.0,0.0
1478124035.1,286047023.2,N,0.0,0.0
1478124036.0,286047023.2,N,0.0,0.0
1478124055.8,286047023.4,N,0.0,0.0
1478124075.7,286047023.4,N,0.0,0.0
1478124095.5,286047022.3,N,0.0,0.0
1478124115.3,286047022.7,N,0.0,0.0
1478124135.2,286047022.6,N,0.0,0.0
1478124155.0,286047023.4,N,0.0,0.0
1478124155.9,286047023.4,N,0.0,0.0
1478124175.8,286047022.8,N,0.0,0.0
1478124195.6,286047022.9,N,0.0,0.0
1478124215.4,286047022.5,N,0.0,0.0
1478124235.3,286047023.3,N,0.0,0.0
1478124255.1,286047023.0,N,0.0,0.0
1478124256.0,286047023.0,N,0.0,0.0
1478124275.8,286047019.2,N,0.0,0.0
1478124295.7,286047022.4,N,0.0,0.0
1478124315.5,286047021.2,N,0.0,0.0
1478124335.3,286047019.3,N,0.0,0.0
1478124355.2,286047021.6,N,0.0,0.0
1478124375.9,286047023.1,N,0.0,0.0
1478124395.7,286047020.8,N,0.0,0.0
1478124415.6,286047020.9,N,0.0,0.0
1478124435.4,286047023.6,N,0.0,0.0
1478124455.2,286047020.5,N,0.0,0.0
1478124475.1,286047020.9,N,0.0,0.0
1478124476.0,286047020.9,N,0.0,0.0
1478124495.8,286047021.8,N,0.0,0.0
1478124515.7,286047019.4,N,0.0,0.0
1478124535.5,286047023.6,N,0.0,0.0
1478124555.3,286047020.5,N,0.0,0.0
1478124575.2,286047022.7,N,0.0,0.0
1478124595.9,286047022.9,N,0.0,0.0
1478124615.7,286047024.5,N,0.0,0.0
1478124635.6,286047026.3,N,0.0,0.0
1478124655.4,286047023.8,N,0.0,0.0
1478124675.2,286047024.5,N,0.0,0.0
1478124695.1,286047024.1,N,0.0,0.0
1478124696.0,286047024.1,N,0.0,0.0
1478124715.8,286047026.3,N,0.0,0.0
1478124735.6,286047023.9,N,0.0,0.0
1478124755.5,286047025.2,N,0.0,0.0
1478124775.3,286047024.1,N,0.0,0.0
1478124795.1,286047022.2,N,0.0,0.0
1478124815.9,286047024.4,N,0.0,0.0
1478124835.7,286047022.2,N,0.0,0.0
1478124855.6,286047023.1,N,0.0,0.0
1478124875.4,286047023.9,N,0.0,0.0
1478124895.2,286047020.6,N,0.0,0.0
1478124915.1,286047025.2,N,0.0,0.0
1478124916.0,286047025.2,N,0.0,0.0
1478124935.8,286047024.9,N,0.0,0.0
1478124955.6,286047026.5,N,0.0,0.0
1478124975.5,286047024.6,N,0.0,0.0
1478124995.3,286047026.8,N,0.0,0.0
1478125015.1,286047024.0,N,0.0,0.0
1478125035.9,286047023.8,N,0.0,0.0
1478125055.7,286047023.9,N,0.0,0.0
1478125075.5,286047023.9,N,0.0,0.0
1478125095.4,286047026.8,N,0.0,0.0
1478125115.2,286047026.2,N,0.0,0.0
1478125135.0,286047024.1,N,0.0,0.0
1478125136.0,286047024.1,N,0.0,0.0
1478125155.8,286047024.6,N,0.0,0.0
1478125175.6,286047023.9,N,0.0,0.0
1478125195.5,286047025.8,N,0.0,0.0
1478125215.3,286047023.5,N,0.0,0.0
1478125235.1,286047027.9,N,0.0,0.0
1478125255.9,286047027.1,N,0.0,0.0
1478125275.7,286047028.4,N,0.0,0.0
1478125295.5,286047027.8,N,0.0,0.0
1478125315.4,286047025.7,N,0.0,0.0
1478125335.2,286047028.2,N,0.0,0.0
1478125355.0,286047025.8,N,0.0,0.0
1478125355.9,286047025.8,N,0.0,0.0
1478125375.8,286047027.9,N,0.0,0.0
1478125395.6,286047026.5,N,0.0,0.0
1478125415.4,286047026.0,N,0.0,0.0
1478125435.3,286047026.0,N,0.0,0.0
1478125455.1,286047026.0,N,0.0,0.0
1478125475.9,286047027.5,N,0.0,0.0
1478125495.7,286047025.8,N,0.0,0.0
1478125515.5,286047025.4,N,0.0,0.0
1478125535.4,286047025.6,N,0.0,0.0
1478125555.2,286047026.2,N,0.0,0.0
1478125575.0,286047025.5,N,0.0,0.0
1478125575.9,286047025.5,N,0.0,0.0
1478125595.8,286047028.3,N,0.0,0.0
1478125615.6,286047025.4,N,0.0,0.0
1478125635.4,286047028.7,N,0.0,0.0
1478125655.3,286047025.8,N,0.0,0.0
1478125675.1,286047025.9,N,0.0,0.0
1478125695.8,286047027.9,N,0.0,0.0
1478125715.7,286047027.9,N,0.0,0.0
1478125735.5,286047025.9,N,0.0,0.0
1478125755.3,286047028.1,N,0.0,0.0
1478125775.2,286047025.4,N,0.0,0.0
1478125795.0,286047026.2,N,0.0,0.0
1478125795.9,286047026.2,N,0.0,0.0
1478125815.8,286047025.6,N,0.0,0.0
1478125835.6,286047026.1,N,0.0,0.0
1478125855.4,286047026.1,N,0.0,0.0
1478125875.3,286047025.3,N,0.0,0.0
1478125895.1,286047025.4,N,0.0,0.0
1478125896.0,286047025.4,N,0.0,0.0
1478125915.8,286047027.6,N,0.0,0.0
1478125935.7,286047025.3,N,0.0,0.0
1478125955.5,286047028.1,N,0.0,0.0
1478125975.3,286047028.2,N,0.0,0.0
1478125995.2,286047026.5,N,0.0,0.0
1478126015.0,286047029.8,N,0.0,0.0
1478126015.9,286047029.8,N,0.0,0.0
1478126035.8,286047028.8,N,0.0,0.0
1478126055.6,286047026.9,N,0.0,0.0
1478126075.4,286047030.0,N,0.0,0.0
1478126095.3,286047029.9,N,0.0,0.0
1478126115.1,286047027.5,N,0.0,0.0
1478126116.0,286047027.5,N,0.0,0.0
1478126135.8,286047027.0,N,0.0,0.0
1478126155.7,286047027.0,N,0.0,0.0
1478126175.5,286047027.5,N,0.0,0.0
1478126195.3,286047030.0,N,0.0,0.0
1478126215.2,286047029.4,N,0.0,0.0
1478126235.0,286047028.8,N,0.0,0.0
1478126235.9,286047028.8,N,0.0,0.0
1478126255.7,286047029.2,N,0.0,0.0
1478126275.6,286047029.3,N,0.0,0.0
1478126295.4,286047027.0,N,0.0,0.0
1478126315.2,286047027.7,N,0.0,0.0
1478126335.1,286047027.3,N,0.0,0.0
1478126336.0,286047027.3,N,0.0,0.0
1478126355.8,286047029.3,N,0.0,0.0
1478126375.7,286047029.7,N,0.0,0.0
1478126395.5,286047028.3,N,0.0,0.0
1478126415.3,286047027.2,N,0.0,0.0
1478126435.2,286047028.2,N,0.0,0.0
1478126455.9,286047027.2,N,0.0,0.0
1478126475.7,286047026.9,N,0.0,0.0
1478126495.6,286047029.6,N,0.0,0.0
1478126515.4,286047029.3,N,0.0,0.0
1478126535.2,286047030.0,N,0.0,0.0
1478126555.1,286047029.2,N,0.0,0.0
1478126556.0,286047029.2,N,0.0,0.0
1478126575.8,286047026.9,N,0.0,0.0
1478126595.6,286047027.8,N,0.0,0.0
1478126615.5,286047027.1,N,0.0,0.0
1478126635.3,286047027.4,N,0.0,0.0
1478126655.2,286047027.1,N,0.0,0.0
1478126675.9,286047029.8,N,0.0,0.0
1478126695.7,286047027.4,N,0.0,0.0
1478126715.6,286047028.1,N,0.0,0.0
1478126735.4,286047028.2,N,0.0,0.0
1478126755.2,286047027.3,N,0.0,0.0
1478126775.1,286047029.6,N,0.0,0.0
1478126776.0,286047029.6,N,0.0,0.0
1478126795.8,286047029.8,N,0.0,0.0
1478126815.6,286047029.6,N,0.0,0.0
1478126835.5,286047027.3,N,0.0,0.0
1478126855.3,286047028.8,N,0.0,0.0
1478126875.1,286047028.7,N,0.0,0.0
1478126895.9,286047027.4,N,0.0,0.0
1478126915.7,286047028.1,N,0.0,0.0
1478126935.5,286047027.1,N,0.0,0.0
1478126955.4,286047029.7,N,0.0,0.0
1478126975.2,286047028.7,N,0.0,0.0
1478126995.0,286047029.5,N,0.0,0.0
1478126996.0,286047029.5,N,0.0,0.0
1478127015.8,286047029.6,N,0.0,0.0
1478127035.6,286047029.2,N,0.0,0.0
1478127055.5,286047029.3,N,0.0,0.0
1478127075.3,286047029.9,N,0.0,0.0
1478127095.1,286047029.5,N,0.0,0.0
1478127115.9,286047029.5,N,0.0,0.0
1478127135.7,286047029.6,N,0.0,0.0
1478127155.5,286047029.8,N,0.0,0.0
1478127175.4,286047031.5,N,0.0,0.0
1478127195.2,286047028.2,N,0.0,0.0
1478127215.0,286047031.7,N,0.0,0.0
1478127215.9,286047031.7,N,0.0,0.0
1478127235.8,286047028.8,N,0.0,0.0
1478127255.6,286047031.4,N,0.0,0.0
1478127275.4,286047030.6,N,0.0,0.0
1478127295.3,286047029.8,N,0.0,0.0
1478127315.1,286047027.2,N,0.0,0.0
1478127335.9,286047029.4,N,0.0,0.0
1478127355.7,286047030.7,N,0.0,0.0
1478127375.5,286047031.2,N,0.0,0.0
1478127395.4,286047028.5,N,0.0,0.0
1478127415.2,286047031.3,N,0.0,0.0
1478127435.0,286047028.5,N,0.0,0.0
1478127435.9,286047028.5,N,0.0,0.0
1478127455.8,286047028.7,N,0.0,0.0
1478127475.6,286047031.6,N,0.0,0.0
1478127495.4,286047029.4,N,0.0,0.0
1478127515.3,286047029.9,N,0.0,0.0
1478127535.1,286047032.9,N,0.0,0.0
1478127555.8,286047030.9,N,0.0,0.0
1478127575.7,286047028.5,N,0.0,0.0
1478127595.5,286047030.6,N,0.0,0.0
